Regional Weather Roundup
Issued by NWS

Home | Current Version | Previous Version | Text Only | Print | Product List | Glossary Off
Versions: 1 2 3 4 5 6 7 8 9 10 11 12 13 14 15 16 17 18 19 20 21 22 23 24 25 26 27 28 29 30 31 32 33 34 35 36 37 38 39 40 41 42 43 44 45 46 47 48 49 50

000
ASUS45 KBOU 290207
RWRCO

WEATHER ROUNDUP FOR COLORADO
NATIONAL WEATHER SERVICE DENVER/BOULDER CO
800 PM MDT MON JUL 28 2014

NOTE: "FAIR" INDICATES FEW OR NO CLOUDS BELOW 12000 FEET WITH NO
SIGNIFICANT WEATHER AND/OR OBSTRUCTIONS TO VISIBILITY.

COZ001>005-013-030-031-290300-
...NORTHWEST COLORADO...

CITY           SKY/WX    TMP DP  RH WIND       PRES   REMARKS
CRAIG          CLOUDY    65  52  62 W9        30.29R
HAYDEN         CLOUDY    73  46  38 NW9       30.31R
MEEKER         CLOUDY    69  50  50 SW9       30.34R
MOUNT WERNER   NOT AVBL
STEAMBOAT SPGS CLOUDY    73  46  39 S5        30.34R
WALDEN         PTCLDY    61  45  55 SW16      30.44R
$$

COZ006>008-011-290300-
...WEST CENTRAL VALLEYS...

CITY           SKY/WX    TMP DP  RH WIND       PRES   REMARKS
GRAND JUNCTION CLOUDY    78  54  43 NE18G28   30.20R
MONTROSE       MOCLDY    81  49  32 N3        30.27R
EAGLE          CLOUDY    66  54  63 W9        30.40R
RIFLE          LGT RAIN  67  56  67 E3        30.32R
DELTA          MOCLDY    82  51  34 E9        30.23R
NUCLA          TSTM      72  55  56 S15G24    30.34R
$$

COZ017>023-064>068-290300-
...SOUTHWEST COLORADO...

CITY           SKY/WX    TMP DP  RH WIND       PRES   REMARKS
DURANGO        CLOUDY    62  58  86 N8        30.43R
CORTEZ         PTCLDY    70  56  61 NE15      30.33S
PAGOSA SPRINGS CLOUDY    62  55  80 CALM      30.49S
TELLURIDE      TSTM      54  54 100 CALM      30.59R
WOLF CREEK PAS NOT AVBL
$$

COZ009-010-012-014-032>034-037-058>063-290300-
...CENTRAL COLORADO...

CITY           SKY/WX    TMP DP  RH WIND       PRES   REMARKS
ASPEN          LGT RAIN  59  54  83 SE3       30.49S
BUENA VISTA    CLOUDY    58  53  81 CALM      30.52S THUNDER
COPPER MTN     CLOUDY    50  39  66 S20       30.75S
BERTHOUD PASS  FAIR      45  32  61 SE12      30.79S
COTTONWOOD PAS CLOUDY    55  46  71 W8        30.64S
GUNNISON       MOCLDY    63  52  67 NE12G18   30.51R
KREMMLING      CLOUDY    70  41  35 SW12      30.43R
LEADVILLE      LGT RAIN  50  49  96 S5        30.62F
MONARCH PASS   FOG       43  41  93 E16       30.85S VSB<1/4
SALIDA         CLOUDY    61  57  86 S3        30.57S
SUNLIGHT       CLOUDY    50  46  87 SE7       30.68F
WILKERSON PASS CLOUDY    45  41  87 W6        30.74S
$$

COZ069>075-290300-
...SAN LUIS VALLEY/SANGRE DE CRISTO MOUNTAINS...

CITY           SKY/WX    TMP DP  RH WIND       PRES   REMARKS
ALAMOSA        CLOUDY    66  53  63 CALM      30.45R
LA VETA PASS   TSTM      46  45  93 NW5       30.67S
SAGUACHE       CLOUDY    61  52  72 S15       30.49R
$$

COZ035-036-038>040-290300-
...NORTHERN COLORADO FRONT RANGE...

CITY           SKY/WX    TMP DP  RH WIND       PRES   REMARKS
DENVER INTL AP CLOUDY    75  54  47 S13       30.26S
DMNS CITY PARK   N/A     74  52  47 SE3G13    30.25R
AURORA         MOCLDY    72  52  49 S13       30.28S
FRONT RANGE AP NOT AVBL
ERIE MUNI ARPT MOCLDY    75  58  56 E5        30.23R
BOULDER MUN AP MOCLDY    75  57  53 CALM      30.22S
CENTENNIAL     MOCLDY    70  50  49 SW13      30.29S
BROOMFIELD     MOCLDY    73  63  68 CALM      30.26F
FORT COLLINS   PTCLDY    79  54  41 E13       30.23R
LONGMONT       PTCLDY    77  55  46 E3        30.23R
$$

COZ041-046-047-076>085-087-088-290300-
...PIKES PEAK/PALMER DIVIDE AND SOUTHERN FOOTHILLS...

CITY           SKY/WX    TMP DP  RH WIND       PRES   REMARKS
COLO. SPRINGS  CLOUDY    67  59  75 S8        30.36F
A. F. ACADEMY  CLOUDY    65  59  80 SE8       30.38R
ELLICOTT       CLOUDY    68  60  75 SW6       30.34F
FALCON         CLOUDY    64  58  81 S5        30.41S
FORT CARSON    CLOUDY    67  62  84 S9        30.33F
LIMON          CLOUDY    73  55  53 SE10      30.30S
MONUMENT HILL  CLOUDY    63  55  77 S8        30.39S
TRINIDAD       CLOUDY    66  58  75 NW18      30.34R
$$

COZ042>045-048>051-090-091-290300-
...NORTHEAST COLORADO...

CITY           SKY/WX    TMP DP  RH WIND       PRES   REMARKS
GREELEY ARPT   MOCLDY    75  61  60 SE5       30.24R
AKRON          CLOUDY    78  51  38 SE14G24   30.24S
BURLINGTON     CLOUDY    73  56  54 S8        30.26S
WRAY             N/A     80  48  32 S8        30.22R
STERLING       CLOUDY    73  63  68 CALM      30.20R
HOLYOKE        MOCLDY    79  63  57 SE7       30.20F
FORT MORGAN    CLOUDY    77  55  45 S8        30.23F
$$

COZ086-089-092>099-290300-
...SOUTHEAST COLORADO...

CITY           SKY/WX    TMP DP  RH WIND       PRES   REMARKS
PUEBLO         CLOUDY    71  57  61 SW13G21   30.27R
LA JUNTA       CLOUDY    75  63  66 SE7       30.22F
LAMAR          MOCLDY    74  59  59 S10       30.21F
SPRINGFIELD      N/A     68  61  78 S12       30.28S
$$



USA.gov is the U.S. government's official web portal to all federal, state and local government web resources and services.